[[{"header":{"parameterUnit":"m.s-1","parameterCategory":2,"la1":30.2991,"la2":30.254,"lo1":-89.0895,"lo2":-89.0444,"dy":0.0017,"dx":0.0017,"nx":28,"ny":28,"refTime":"2024-02-15T09:00:00:Z","depth":"0","parameterNumber":2,"parameterNumberName":"U-component_of_CURRENTS"},"data":[0,0,0,0,0,0,0,0,0,0,0,0,0,0,0,0,0,0,0,0,0,0,0,0,0,0,0,0,0,0,0,0,0,0,0,0,0,0,0,0,0,0,0,0,0,0,0,0,0,0,0,0,0,0,0,0,0,0,-0.285,-0.285,0,-0.279,-0.2789,-0.2789,-0.275,-0.275,-0.275,-0.275,-0.2719,-0.2718,-0.2718,0,0,0,0,0,0,0,0,0,0,0,0,0,-0.2895,-0.2894,-0.2851,-0.285,-0.2849,-0.279,-0.2789,-0.2788,-0.275,-0.275,-0.275,-0.275,-0.2719,-0.2718,-0.2717,0,0,0,0,0,0,0,0,0,0,0,0,0,-0.2857,-0.2894,-0.2851,-0.2825,-0.2822,-0.2791,-0.2789,-0.2788,-0.275,-0.275,-0.275,-0.275,-0.272,-0.2718,-0.2717,-0.2711,0,0,-0.2714,-0.2713,0,0,0,0,0,0,0,0,-0.2859,-0.2855,-0.2829,-0.2827,-0.2823,-0.278,-0.2794,-0.2764,-0.275,-0.2775,-0.275,-0.275,-0.2744,-0.274,-0.2726,-0.2709,-0.2708,-0.2714,-0.2713,-0.2712,-0.2712,0,0,0,0,0,0,0,-0.2862,-0.2857,-0.2824,-0.2829,-0.2825,-0.2803,-0.2798,-0.2787,-0.2759,-0.2773,-0.2771,-0.2767,-0.2742,-0.2727,-0.2725,-0.2708,-0.2714,-0.2713,-0.2712,-0.2711,-0.265,-0.2649,0,0,0,0,0,0,-0.2876,-0.286,-0.2826,-0.2823,-0.2844,-0.2803,-0.2797,-0.2792,-0.2758,-0.2754,-0.2767,-0.2766,-0.2729,-0.2726,-0.2724,-0.2731,-0.2712,-0.2711,-0.2711,-0.2651,-0.265,-0.2649,0,0,0,0,0,0,-0.2877,-0.2873,-0.2829,-0.2842,-0.2835,-0.2803,-0.2797,-0.2791,-0.2778,-0.2754,-0.275,-0.2762,-0.2729,-0.2725,-0.2702,-0.2729,-0.2711,-0.271,-0.2652,-0.265,-0.2649,-0.2735,0,0,0,0,0,0,-0.2878,-0.2874,-0.2872,-0.2843,-0.2835,-0.2824,-0.2797,-0.279,-0.2777,-0.2775,-0.2749,-0.2745,-0.2728,-0.2704,-0.2701,-0.2727,-0.2709,-0.2653,-0.2651,-0.265,-0.2733,-0.2737,-0.274,0,0,0,0,0,-0.288,-0.288,-0.2873,-0.2868,-0.2835,-0.2825,-0.2819,-0.2794,-0.2777,-0.278,-0.2745,-0.2746,-0.2691,-0.2702,-0.2699,-0.2725,-0.2654,-0.2652,-0.265,-0.2732,-0.2736,-0.274,0,0,0,0,0,0,-0.2897,-0.2876,-0.2867,-0.286,-0.2851,-0.282,-0.2815,-0.2798,-0.2771,-0.2765,-0.2737,-0.2731,-0.2725,-0.2697,-0.2711,-0.2695,-0.2672,-0.2669,-0.2736,-0.2739,-0.2742,-0.2771,-0.2708,0,0,0,0,0,-0.2901,-0.2894,-0.2879,-0.2873,-0.287,-0.2843,-0.2834,-0.2822,-0.2795,-0.2783,-0.2764,-0.2732,-0.2713,-0.2704,-0.2684,-0.2676,-0.2678,-0.2684,-0.2688,-0.2691,-0.2707,-0.2693,-0.2698,-0.2642,-0.2642,-0.2642,0,0,-0.2904,-0.2893,-0.2887,-0.2876,-0.2862,-0.2869,-0.2837,-0.2831,-0.2839,-0.2785,-0.2782,-0.2751,-0.2711,-0.2704,-0.2698,-0.2686,-0.2715,-0.2688,-0.2692,-0.2706,-0.2691,-0.2697,-0.2702,-0.2641,-0.2641,-0.2641,0,0,-0.2907,-0.29,-0.2896,-0.2899,-0.2891,-0.2884,-0.2888,-0.2867,-0.2861,-0.2847,-0.2813,-0.279,-0.2756,-0.2739,-0.2723,-0.2726,-0.2735,-0.2716,-0.276,-0.2746,-0.2752,-0.2757,-0.2814,-0.2823,-0.2715,-0.2715,-0.2715,0,-0.2913,-0.2907,-0.2895,-0.2903,-0.2909,-0.2897,-0.2908,-0.2907,-0.2882,-0.2873,-0.2857,-0.2801,-0.2777,-0.2767,-0.2768,-0.2742,-0.2751,-0.2759,-0.2756,-0.276,-0.2764,-0.282,-0.2829,-0.2719,-0.2718,-0.2718,-0.2717,0,-0.2917,-0.292,-0.2923,-0.2932,-0.2941,-0.295,-0.2957,-0.2961,-0.2948,-0.2934,-0.292,-0.2879,-0.2839,-0.2835,-0.2807,-0.2818,-0.2827,-0.277,-0.2761,-0.2776,-0.2833,-0.2841,-0.2724,-0.2723,-0.2722,-0.2721,0,0,-0.2906,-0.2922,-0.2923,-0.2924,-0.2959,-0.2954,-0.2992,-0.2999,-0.3002,-0.2989,-0.2987,-0.2959,-0.2927,-0.2905,-0.2873,-0.2873,-0.2925,-0.284,-0.2838,-0.2925,-0.2952,-0.2745,-0.2735,-0.2865,-0.2865,-0.2866,-0.3001,0,-0.2911,-0.2915,-0.294,-0.2957,-0.2956,-0.2987,-0.3017,-0.3026,-0.3028,-0.3029,-0.3005,-0.2984,-0.2958,-0.2933,-0.2935,-0.2914,-0.2941,-0.2898,-0.2899,-0.2901,-0.2736,-0.2733,-0.2578,-0.2662,-0.3008,-0.301,-0.3011,0,-0.2897,-0.2902,-0.2909,-0.2942,-0.2949,-0.2966,-0.2994,-0.302,-0.3042,-0.3041,-0.3034,-0.3019,-0.3029,-0.2987,-0.3009,-0.2981,-0.2982,-0.298,-0.2983,-0.2762,-0.2705,-0.2689,-0.2664,-0.2643,-0.3023,-0.3022,-0.3021,0,-0.2832,-0.2878,-0.2873,-0.2887,-0.293,-0.2937,-0.2961,-0.2996,-0.3015,-0.3034,-0.3042,-0.3056,-0.3046,-0.3052,-0.3041,-0.3029,-0.3069,-0.304,-0.2882,-0.2873,-0.2723,-0.2694,-0.2691,-0.3066,-0.3065,-0.3065,-0.3065,0,-0.28,-0.2792,-0.2834,-0.2817,-0.2819,-0.2877,-0.2884,-0.2909,-0.2968,-0.2976,-0.3021,-0.3025,-0.3053,-0.3072,-0.3074,-0.2991,-0.3089,-0.29,-0.2869,-0.2747,-0.272,-0.2675,-0.2708,-0.307,-0.3069,-0.3068,-0.3067,0,-0.2689,-0.2729,-0.2701,-0.2745,-0.2767,-0.274,-0.2816,-0.2842,-0.29,-0.292,-0.2928,-0.301,-0.2988,-0.3023,-0.304,-0.2993,-0.289,-0.2913,-0.2794,-0.2741,-0.249,-0.2533,-0.2499,-0.2433,-0.2761,-0.2756,-0.2752,0,-0.262,-0.2602,-0.2609,-0.2599,-0.2606,-0.2619,-0.2659,-0.276,-0.2792,-0.2885,-0.2886,-0.2909,-0.2846,-0.2816,-0.2743,-0.2702,-0.2727,-0.2556,-0.2457,-0.2446,-0.2478,-0.2517,-0.247,-0.236,-0.2353,-0.2348,-0.2343,0,-0.2475,-0.2471,-0.2441,-0.2434,-0.2449,-0.248,-0.253,-0.2569,-0.2691,-0.2705,-0.2705,-0.2667,-0.2607,-0.2442,-0.2377,-0.2343,-0.2445,-0.2429,-0.245,-0.217,-0.2188,-0.2118,-0.2377,-0.2293,-0.2298,-0.2302,-0.2305,-0.2307,-0.2331,-0.2275,-0.225,-0.2228,-0.2277,-0.2308,-0.2283,-0.2363,-0.2375,-0.2361,-0.2446,-0.2328,-0.2251,-0.2069,-0.2032,-0.1912,-0.2028,-0.1872,-0.1947,-0.2007,-0.184,-0.1983,-0.1802,-0.1804,-0.1806,-0.1808,-0.1809,0,-0.2135,-0.2096,-0.2073,-0.2037,-0.2052,-0.2124,-0.2184,-0.2131,-0.2076,-0.2094,-0.2009,-0.1923,-0.1731,-0.1708,-0.1593,-0.1509,-0.1523,-0.1503,-0.1588,-0.1576,-0.1728,-0.1595,-0.1317,-0.1317,-0.1317,-0.1317,-0.1317,-0.1317,-0.2005,-0.1906,-0.19,-0.1818,-0.1829,-0.1779,-0.1775,-0.1699,-0.1672,-0.1554,-0.1523,-0.1548,-0.1549,-0.1593,-0.145,-0.137,-0.1398,-0.1308,-0.14,-0.1569,-0.1612,-0.1654,-0.1535,-0.1248,-0.1249,-0.117,-0.117,-0.1169]},{"header":{"parameterUnit":"m.s-1","parameterCategory":2,"la1":30.2991,"la2":30.254,"lo1":-89.0895,"lo2":-89.0444,"dy":0.0017,"dx":0.0017,"nx":28,"ny":28,"refTime":"2024-02-15T09:00:00:Z","depth":"0","parameterNumber":3,"parameterNumberName":"V-component_of_CURRENTS"},"data":[0,0,0,0,0,0,0,0,0,0,0,0,0,0,0,0,0,0,0,0,0,0,0,0,0,0,0,0,0,0,0,0,0,0,0,0,0,0,0,0,0,0,0,0,0,0,0,0,0,0,0,0,0,0,0,0,0,0,-0.0379,-0.0378,0,-0.0271,-0.0269,-0.0268,-0.0205,-0.0205,-0.0205,-0.0205,0.0005,0.0011,0.0017,0,0,0,0,0,0,0,0,0,0,0,0,0,-0.0471,-0.047,-0.0379,-0.0378,-0.0377,-0.0271,-0.0269,-0.0267,-0.0205,-0.0205,-0.0205,-0.0205,0.0004,0.001,0.0017,0,0,0,0,0,0,0,0,0,0,0,0,0,-0.0401,-0.047,-0.0379,-0.0335,-0.0331,-0.0271,-0.0269,-0.0267,-0.0205,-0.0205,-0.0205,-0.0205,0.0001,0.001,0.0018,0.0073,0,0,0.0044,0.0048,0,0,0,0,0,0,0,0,-0.0405,-0.0397,-0.0343,-0.0338,-0.0333,-0.0255,-0.0225,-0.0149,-0.0205,-0.0249,-0.0205,-0.0205,-0.0074,-0.0059,-0.0035,0.0083,0.0092,0.0045,0.005,0.0054,0.0056,0,0,0,0,0,0,0,-0.041,-0.0401,-0.0332,-0.0342,-0.0336,-0.0301,-0.0291,-0.021,-0.0158,-0.0245,-0.0241,-0.0235,-0.007,-0.0044,-0.003,0.0095,0.0045,0.0052,0.0057,0.0061,0.0239,0.0239,0,0,0,0,0,0,-0.0433,-0.0406,-0.0336,-0.033,-0.0374,-0.03,-0.0289,-0.0277,-0.0161,-0.0145,-0.0235,-0.0232,-0.0058,-0.004,-0.0022,0.0047,0.0054,0.0062,0.0066,0.024,0.0239,0.0239,0,0,0,0,0,0,-0.0436,-0.0428,-0.034,-0.0368,-0.0355,-0.0299,-0.0285,-0.0275,-0.0247,-0.0155,-0.0136,-0.0219,-0.0058,-0.0034,0.0038,0.0056,0.0065,0.0073,0.024,0.024,0.0239,0.0187,0,0,0,0,0,0,-0.0438,-0.0429,-0.0426,-0.037,-0.0355,-0.0305,-0.0285,-0.0273,-0.0245,-0.024,-0.0135,-0.0116,-0.0056,0.0025,0.0047,0.0067,0.008,0.0241,0.024,0.0239,0.0189,0.0184,0.0181,0,0,0,0,0,-0.0442,-0.0434,-0.0427,-0.0418,-0.0354,-0.0305,-0.0294,-0.0252,-0.0244,-0.0228,-0.0171,-0.0119,0.0036,0.0032,0.0058,0.0081,0.0241,0.024,0.0239,0.0191,0.0185,0.0181,0,0,0,0,0,0,-0.0472,-0.0426,-0.0417,-0.0396,-0.0358,-0.0296,-0.028,-0.0255,-0.0197,-0.0194,-0.0111,-0.0088,-0.0016,0.0031,0.0025,0.0125,0.0143,0.0147,0.0097,0.0093,0.0089,0.0107,0.0087,0,0,0,0,0,-0.048,-0.0463,-0.0417,-0.0401,-0.0386,-0.0336,-0.0312,-0.0285,-0.023,-0.0206,-0.0136,-0.0068,0.0002,0.0043,0.0114,0.0175,0.0216,0.02,0.0196,0.0192,0.0221,0.025,0.0252,0.0236,0.0236,0.0236,0,0,-0.0489,-0.0462,-0.0453,-0.0407,-0.0375,-0.0344,-0.032,-0.0287,-0.0251,-0.0189,-0.012,-0.0069,0.0014,0.008,0.0115,0.0122,0.0217,0.0191,0.0188,0.022,0.025,0.0252,0.0253,0.0236,0.0236,0.0236,0,0,-0.0495,-0.0474,-0.0462,-0.0432,-0.0391,-0.0354,-0.0349,-0.029,-0.0254,-0.0191,-0.0142,-0.0084,0.002,0.0083,0.0127,0.0145,0.0196,0.0151,0.0152,0.0178,0.018,0.0183,0.0232,0.0239,0.0145,0.0145,0.0145,0,-0.0511,-0.0483,-0.045,-0.043,-0.0403,-0.0362,-0.0338,-0.0291,-0.0216,-0.018,-0.0177,-0.0039,0.0031,0.0117,0.012,0.0143,0.0161,0.0164,0.0174,0.0177,0.018,0.0231,0.0239,0.0143,0.0143,0.0143,0.0143,0,-0.0497,-0.0481,-0.0471,-0.0429,-0.0396,-0.0369,-0.031,-0.0268,-0.023,-0.0184,-0.0102,-0.0028,0.0052,0.0073,0.0114,0.0169,0.0176,0.0165,0.0186,0.0179,0.0232,0.0242,0.0139,0.014,0.0141,0.0141,0,0,-0.0514,-0.0471,-0.0467,-0.045,-0.0393,-0.0362,-0.0303,-0.0231,-0.0201,-0.0131,-0.0089,0.003,0.0049,0.01,0.014,0.0173,0.0214,0.0174,0.0176,0.0225,0.0279,0.0306,0.032,0.0183,0.0184,0.0186,0.0306,0,-0.0513,-0.0484,-0.0452,-0.0415,-0.0394,-0.0339,-0.0289,-0.0223,-0.0173,-0.0127,-0.0047,0.0005,0.0063,0.0075,0.0125,0.0178,0.0238,0.0184,0.0281,0.0285,0.031,0.0332,0.0351,0.0461,0.0316,0.0318,0.0319,0,-0.0498,-0.0483,-0.0454,-0.0407,-0.0392,-0.0365,-0.0287,-0.0239,-0.0163,-0.013,-0.0069,-0.003,0.0055,0.0071,0.0208,0.0158,0.0238,0.0285,0.0289,0.0349,0.0331,0.0447,0.0485,0.0648,0.0335,0.0334,0.0333,0,-0.0507,-0.0474,-0.0452,-0.0435,-0.0381,-0.0354,-0.0317,-0.0244,-0.0218,-0.0152,-0.0161,-0.0046,-0.003,0.0086,0.0216,0.0193,0.0348,0.0322,0.0445,0.0448,0.0509,0.0515,0.0724,0.0447,0.0446,0.0446,0.0446,0,-0.0497,-0.0476,-0.0463,-0.045,-0.0432,-0.038,-0.0357,-0.0303,-0.0268,-0.0272,-0.0182,-0.0186,-0.0036,0.0063,0.0201,0.0365,0.0349,0.0477,0.0486,0.049,0.0492,0.0671,0.0725,0.0451,0.045,0.0449,0.0448,0,-0.0481,-0.0477,-0.0461,-0.0436,-0.0438,-0.0421,-0.041,-0.041,-0.0361,-0.0378,-0.0374,-0.0296,-0.0173,0.0021,0.0201,0.0328,0.0591,0.0569,0.0582,0.0591,0.0818,0.0865,0.1077,0.1175,0.0699,0.0701,0.0702,0,-0.0453,-0.0446,-0.0467,-0.0502,-0.0496,-0.049,-0.051,-0.046,-0.0483,-0.0457,-0.0492,-0.0381,-0.0305,0.0003,0.026,0.0544,0.0675,0.0726,0.0703,0.0869,0.0929,0.0951,0.1019,0.0767,0.0768,0.077,0.0771,0,-0.0394,-0.0417,-0.0422,-0.0525,-0.0568,-0.061,-0.064,-0.0676,-0.0646,-0.0648,-0.065,-0.0584,-0.0292,0.0009,0.0397,0.0562,0.0829,0.0759,0.0928,0.1016,0.1059,0.1142,0.0663,0.0783,0.0781,0.0781,0.078,0.0779,-0.0344,-0.0369,-0.0433,-0.0524,-0.0614,-0.0732,-0.0773,-0.082,-0.0849,-0.0844,-0.0771,-0.0614,-0.0152,0.0369,0.0569,0.099,0.0937,0.11,0.1151,0.1165,0.1249,0.0812,0.0931,0.0931,0.0931,0.0931,0.093,0,-0.0262,-0.0337,-0.0439,-0.0577,-0.0719,-0.0754,-0.0863,-0.0905,-0.0961,-0.0875,-0.081,-0.0297,0.0145,0.0604,0.1169,0.1383,0.1435,0.1491,0.1546,0.1602,0.1224,0.1217,0.1408,0.1408,0.1408,0.1408,0.1408,0.1407,-0.0219,-0.0285,-0.038,-0.0624,-0.076,-0.0916,-0.0982,-0.1029,-0.0971,-0.0772,-0.0477,-0.0227,0.0442,0.1247,0.1742,0.1782,0.1977,0.1934,0.2054,0.1806,0.1774,0.1743,0.1754,0.2054,0.2055,0.2419,0.2423,0.2426]}],[{"header":{"parameterUnit":"m.s-1","parameterCategory":2,"la1":30.2991,"la2":30.254,"lo1":-89.0895,"lo2":-89.0444,"dy":0.0017,"dx":0.0017,"nx":28,"ny":28,"refTime":"2024-02-15T09:00:00:Z","depth":"2","parameterNumber":2,"parameterNumberName":"U-component_of_CURRENTS"},"data":[0,0,0,0,0,0,0,0,0,0,0,0,0,0,0,0,0,0,0,0,0,0,0,0,0,0,0,0,0,0,0,0,0,0,0,0,0,0,0,0,0,0,0,0,0,0,0,0,0,0,0,0,0,0,0,0,0,0,-0.2128,-0.2129,0,-0.2103,-0.2102,-0.21,-0.2152,-0.2155,-0.2158,-0.2161,-0.217,-0.2167,-0.2165,0,0,0,0,0,0,0,0,0,0,0,0,0,-0.206,-0.2061,-0.2128,-0.2129,-0.213,-0.2104,-0.2102,-0.21,-0.2151,-0.2155,-0.2159,-0.2162,-0.217,-0.2167,-0.2164,0,0,0,0,0,0,0,0,0,0,0,0,0,-0.2055,-0.2061,-0.2128,-0.2163,-0.2167,-0.2104,-0.2102,-0.21,-0.2151,-0.2155,-0.216,-0.2164,-0.2171,-0.2168,-0.2164,-0.2052,0,0,-0.2152,-0.2151,0,0,0,0,0,0,0,0,-0.2055,-0.2055,-0.2157,-0.2161,-0.2165,-0.2148,-0.2082,-0.209,-0.2149,-0.2142,-0.2161,-0.2166,-0.2171,-0.2168,-0.2133,-0.2052,-0.2053,-0.2152,-0.215,-0.2148,-0.2147,0,0,0,0,0,0,0,-0.2055,-0.2056,-0.2104,-0.2158,-0.2163,-0.2126,-0.213,-0.2081,-0.2122,-0.2143,-0.215,-0.2168,-0.2172,-0.2136,-0.2134,-0.2053,-0.2152,-0.2149,-0.2147,-0.2145,-0.2173,-0.2176,0,0,0,0,0,0,-0.209,-0.2057,-0.2105,-0.2105,-0.2136,-0.2125,-0.2129,-0.2137,-0.2122,-0.2127,-0.2164,-0.2171,-0.214,-0.2138,-0.2134,-0.2206,-0.2148,-0.2145,-0.2142,-0.217,-0.2174,-0.2177,0,0,0,0,0,0,-0.2088,-0.2094,-0.2107,-0.2092,-0.2093,-0.2124,-0.2131,-0.2135,-0.2118,-0.214,-0.2145,-0.215,-0.2144,-0.214,-0.2198,-0.22,-0.2143,-0.214,-0.2166,-0.2171,-0.2175,-0.2218,0,0,0,0,0,0,-0.2086,-0.2093,-0.2098,-0.2094,-0.2096,-0.2106,-0.2129,-0.2131,-0.2128,-0.2136,-0.2128,-0.2133,-0.2147,-0.2204,-0.2194,-0.2194,-0.2137,-0.2163,-0.2168,-0.2174,-0.2213,-0.2223,-0.2232,0,0,0,0,0,-0.2083,-0.2103,-0.2098,-0.2104,-0.2106,-0.2107,-0.2102,-0.2129,-0.2124,-0.2124,-0.2177,-0.2134,-0.2233,-0.2204,-0.2191,-0.2189,-0.216,-0.2167,-0.2173,-0.2208,-0.2221,-0.2232,0,0,0,0,0,0,-0.2089,-0.211,-0.2106,-0.2132,-0.2131,-0.2123,-0.2118,-0.2115,-0.2135,-0.2158,-0.216,-0.217,-0.2219,-0.2207,-0.2174,-0.2225,-0.2189,-0.2194,-0.2221,-0.2232,-0.2242,-0.2225,-0.2133,0,0,0,0,0,-0.2085,-0.2088,-0.2107,-0.2115,-0.2113,-0.2095,-0.2091,-0.2117,-0.2142,-0.2151,-0.217,-0.22,-0.2222,-0.2238,-0.2256,-0.2257,-0.225,-0.2258,-0.2268,-0.2276,-0.2262,-0.2275,-0.2283,-0.2199,-0.2199,-0.2199,0,0,-0.2066,-0.2096,-0.2084,-0.2113,-0.2093,-0.2114,-0.2101,-0.2113,-0.2156,-0.2146,-0.2211,-0.2221,-0.2235,-0.2284,-0.23,-0.228,-0.2308,-0.2284,-0.229,-0.2271,-0.2282,-0.229,-0.2296,-0.2204,-0.2203,-0.2202,0,0,-0.2081,-0.2069,-0.2091,-0.2092,-0.2118,-0.2121,-0.2126,-0.2142,-0.2176,-0.2235,-0.2255,-0.2284,-0.2313,-0.2334,-0.234,-0.2399,-0.2358,-0.2405,-0.2429,-0.2443,-0.2449,-0.2453,-0.2492,-0.25,-0.2411,-0.2411,-0.2411,0,-0.2077,-0.2104,-0.2093,-0.2131,-0.2136,-0.2127,-0.2154,-0.2177,-0.2232,-0.2269,-0.229,-0.2339,-0.2334,-0.2368,-0.2412,-0.241,-0.243,-0.2374,-0.2451,-0.2455,-0.2458,-0.2497,-0.2505,-0.2414,-0.2413,-0.2413,-0.2413,0,-0.209,-0.213,-0.2134,-0.2176,-0.2183,-0.2193,-0.2238,-0.2291,-0.2325,-0.2349,-0.2411,-0.2422,-0.2448,-0.2449,-0.2444,-0.2465,-0.2478,-0.2456,-0.2406,-0.2468,-0.2507,-0.2514,-0.2418,-0.2417,-0.2416,-0.2415,0,0,-0.207,-0.2132,-0.2142,-0.2164,-0.2204,-0.221,-0.2306,-0.2368,-0.242,-0.2474,-0.2529,-0.2545,-0.2519,-0.2524,-0.2504,-0.2508,-0.255,-0.2495,-0.2495,-0.2509,-0.2613,-0.2412,-0.2401,-0.2545,-0.2546,-0.2547,-0.2642,0,-0.2089,-0.2163,-0.2194,-0.2243,-0.2268,-0.2305,-0.2385,-0.2452,-0.2505,-0.2572,-0.2574,-0.2599,-0.2556,-0.2555,-0.2555,-0.2547,-0.2566,-0.2528,-0.2571,-0.2573,-0.2363,-0.2399,-0.2229,-0.2279,-0.2648,-0.265,-0.265,0,-0.212,-0.2161,-0.2208,-0.2295,-0.2304,-0.2337,-0.2428,-0.2496,-0.2597,-0.2649,-0.2671,-0.2665,-0.2668,-0.2622,-0.2637,-0.2622,-0.2619,-0.2613,-0.2617,-0.2405,-0.2381,-0.2272,-0.2277,-0.2662,-0.2661,-0.266,-0.2659,0,-0.2092,-0.2195,-0.2222,-0.2227,-0.2309,-0.2358,-0.2407,-0.2512,-0.2566,-0.2661,-0.2692,-0.2721,-0.2722,-0.2722,-0.2655,-0.2679,-0.2661,-0.27,-0.253,-0.252,-0.2363,-0.2333,-0.2716,-0.2716,-0.2716,-0.2716,-0.2715,0,-0.2101,-0.2125,-0.2209,-0.2187,-0.2258,-0.2323,-0.2384,-0.2483,-0.2574,-0.2591,-0.2677,-0.2658,-0.2743,-0.2719,-0.2692,-0.2586,-0.2687,-0.2524,-0.2512,-0.2378,-0.2349,-0.266,-0.2652,-0.2719,-0.2718,-0.2718,-0.2717,0,-0.2053,-0.2099,-0.2119,-0.2189,-0.2234,-0.2257,-0.2348,-0.2386,-0.2499,-0.2528,-0.2548,-0.2643,-0.2614,-0.2642,-0.2651,-0.26,-0.2537,-0.2473,-0.2305,-0.2267,-0.2416,-0.2411,-0.2383,-0.2376,-0.2371,-0.2366,-0.2362,0,-0.2014,-0.2021,-0.2084,-0.2107,-0.2125,-0.2185,-0.2234,-0.2341,-0.2353,-0.2445,-0.2428,-0.2468,-0.2423,-0.2375,-0.2309,-0.2268,-0.2357,-0.208,-0.2064,-0.2381,-0.2375,-0.2378,-0.238,-0.1934,-0.1927,-0.1921,-0.1917,0,-0.1922,-0.1943,-0.1974,-0.2009,-0.2033,-0.2062,-0.2113,-0.211,-0.2196,-0.224,-0.2216,-0.2198,-0.2167,-0.2026,-0.1969,-0.191,-0.2078,-0.1955,-0.2334,-0.1992,-0.195,-0.1945,-0.1965,-0.1864,-0.1869,-0.1873,-0.1876,-0.1878,-0.1876,-0.1852,-0.1888,-0.1918,-0.1947,-0.19,-0.1849,-0.1893,-0.188,-0.1887,-0.1935,-0.1876,-0.1892,-0.1706,-0.1586,-0.153,-0.1706,-0.1676,-0.1699,-0.1728,-0.1605,-0.1548,-0.137,-0.1373,-0.1375,-0.1376,-0.1378,0,-0.1814,-0.1796,-0.1798,-0.178,-0.1726,-0.179,-0.1749,-0.1672,-0.1587,-0.1633,-0.1619,-0.1452,-0.1343,-0.1348,-0.1181,-0.1144,-0.1204,-0.11,-0.1198,-0.1249,-0.1294,-0.1155,-0.0798,-0.0797,-0.0795,-0.0794,0,0,-0.1774,-0.1731,-0.1685,-0.1552,-0.155,-0.1403,-0.1328,-0.1288,-0.1272,-0.1213,-0.1196,-0.1297,-0.1311,-0.1064,-0.0997,-0.0867,-0.1059,-0.0822,-0.1287,-0.1453,-0.1496,-0.1618,-0.1456,0,0,0,0,0]},{"header":{"parameterUnit":"m.s-1","parameterCategory":2,"la1":30.2991,"la2":30.254,"lo1":-89.0895,"lo2":-89.0444,"dy":0.0017,"dx":0.0017,"nx":28,"ny":28,"refTime":"2024-02-15T09:00:00:Z","depth":"2","parameterNumber":3,"parameterNumberName":"V-component_of_CURRENTS"},"data":[0,0,0,0,0,0,0,0,0,0,0,0,0,0,0,0,0,0,0,0,0,0,0,0,0,0,0,0,0,0,0,0,0,0,0,0,0,0,0,0,0,0,0,0,0,0,0,0,0,0,0,0,0,0,0,0,0,0,-0.0089,-0.0088,0,-0.0021,-0.0021,-0.002,0.0055,0.0056,0.0058,0.0059,0.0164,0.0166,0.0168,0,0,0,0,0,0,0,0,0,0,0,0,0,-0.009,-0.0091,-0.0089,-0.0088,-0.0087,-0.0022,-0.0021,-0.002,0.0055,0.0057,0.0058,0.0059,0.0163,0.0166,0.0168,0,0,0,0,0,0,0,0,0,0,0,0,0,-0.0063,-0.0091,-0.0089,-0.0042,-0.0037,-0.0022,-0.0021,-0.0019,0.0055,0.0057,0.0058,0.006,0.0163,0.0165,0.0168,0.0152,0,0,0.0176,0.0177,0,0,0,0,0,0,0,0,-0.0065,-0.0063,-0.005,-0.0045,-0.004,0.001,0.0018,0.004,0.0054,0.002,0.0059,0.006,0.0115,0.0121,0.013,0.0157,0.0162,0.0176,0.0178,0.0179,0.018,0,0,0,0,0,0,0,-0.0067,-0.0065,-0.0062,-0.0049,-0.0043,-0.0003,0.0002,0.0022,0.0058,0.0023,0.0029,0.0035,0.0118,0.0127,0.0133,0.0163,0.0176,0.0179,0.018,0.0181,0.0341,0.0344,0,0,0,0,0,0,-0.0081,-0.0068,-0.0064,-0.006,-0.0049,-0.0005,0.0001,-0.0007,0.0058,0.0069,0.0034,0.0039,0.0122,0.013,0.0137,0.0201,0.0179,0.0182,0.0183,0.0339,0.0342,0.0345,0,0,0,0,0,0,-0.0081,-0.0082,-0.0067,-0.0061,-0.0056,-0.0007,-0.0017,-0.0007,0.0002,0.0065,0.0077,0.0033,0.0124,0.0134,0.0207,0.0203,0.0183,0.0185,0.0336,0.034,0.0343,0.0279,0,0,0,0,0,0,-0.0082,-0.0083,-0.0091,-0.0063,-0.0057,-0.0063,-0.0018,-0.0007,0.0003,0.001,0.0068,0.008,0.0126,0.0203,0.0209,0.0207,0.0188,0.0332,0.0337,0.0342,0.0278,0.028,0.0282,0,0,0,0,0,-0.0083,-0.0094,-0.0092,-0.0091,-0.0072,-0.0063,-0.0057,-0.0015,0.0001,-0.0001,0.0081,0.0078,0.0239,0.0207,0.0214,0.0212,0.033,0.0336,0.0342,0.0277,0.028,0.0282,0,0,0,0,0,0,-0.0092,-0.0087,-0.0084,-0.0093,-0.0085,-0.0051,-0.0049,-0.0029,0.0026,0.0041,0.0103,0.0121,0.0186,0.022,0.0183,0.0283,0.0286,0.0293,0.0234,0.0237,0.0239,0.02,0.019,0,0,0,0,0,-0.0105,-0.0121,-0.0105,-0.0118,-0.0118,-0.0093,-0.0084,-0.006,-0.001,0.0013,0.0064,0.0139,0.0213,0.0242,0.0304,0.034,0.0368,0.0354,0.0356,0.0357,0.0337,0.0402,0.0406,0.0364,0.0364,0.0364,0,0,-0.0121,-0.0114,-0.0128,-0.0123,-0.0116,-0.0124,-0.0083,-0.0079,-0.0062,0.0015,0.0063,0.0138,0.0229,0.0296,0.0326,0.0321,0.0389,0.0364,0.0364,0.0343,0.0408,0.0411,0.0414,0.0368,0.0367,0.0367,0,0,-0.0155,-0.0154,-0.0179,-0.0178,-0.0169,-0.0149,-0.0156,-0.0124,-0.0084,-0.0032,0.0052,0.0137,0.0215,0.0298,0.0347,0.0397,0.0401,0.0412,0.0376,0.0439,0.0442,0.0444,0.0488,0.0495,0.0408,0.0408,0.0407,0,-0.0171,-0.0201,-0.0184,-0.0202,-0.0206,-0.0169,-0.0194,-0.0151,-0.0088,-0.0043,-0.0019,0.0153,0.022,0.0324,0.0354,0.0393,0.042,0.0346,0.0435,0.0438,0.0442,0.0487,0.0495,0.0405,0.0405,0.0406,0.0406,0,-0.0228,-0.0247,-0.0262,-0.0279,-0.0277,-0.0293,-0.0244,-0.0212,-0.0163,-0.0103,0.0008,0.0124,0.0224,0.0267,0.032,0.0389,0.0398,0.0426,0.0407,0.044,0.0488,0.0497,0.0402,0.0403,0.0403,0.0404,0,0,-0.0284,-0.03,-0.0308,-0.0332,-0.032,-0.0331,-0.0292,-0.0241,-0.0199,-0.0111,-0.0046,0.01,0.016,0.0223,0.0307,0.0362,0.0417,0.0387,0.0392,0.0393,0.0535,0.0482,0.0487,0.0446,0.0448,0.0449,0.0558,0,-0.034,-0.0391,-0.0376,-0.0429,-0.046,-0.041,-0.0381,-0.0318,-0.0228,-0.0146,-0.0008,0.0088,0.0147,0.0197,0.0264,0.038,0.0438,0.0384,0.0536,0.054,0.0457,0.0495,0.0474,0.0563,0.0567,0.0569,0.057,0,-0.0407,-0.0432,-0.0489,-0.0508,-0.0516,-0.0525,-0.0473,-0.0437,-0.0292,-0.0214,-0.0094,0.0013,0.0131,0.0172,0.0352,0.0306,0.0407,0.0492,0.0499,0.047,0.0503,0.0537,0.058,0.0586,0.0584,0.0583,0.0582,0,-0.0471,-0.0515,-0.0561,-0.0575,-0.0578,-0.0575,-0.0564,-0.0452,-0.0405,-0.0253,-0.02,-0.0037,0.0041,0.0179,0.0337,0.0348,0.0514,0.0565,0.062,0.0617,0.0639,0.0634,0.0691,0.0691,0.069,0.069,0.069,0,-0.0539,-0.058,-0.0596,-0.0628,-0.0671,-0.0647,-0.0637,-0.0576,-0.0474,-0.0415,-0.025,-0.0179,0.0041,0.0167,0.0314,0.0467,0.05,0.0606,0.0641,0.0618,0.0611,0.0662,0.0657,0.0694,0.0693,0.0692,0.0692,0,-0.0596,-0.0608,-0.0669,-0.0693,-0.0704,-0.0732,-0.0719,-0.069,-0.0592,-0.0512,-0.0476,-0.0284,-0.0127,0.0077,0.031,0.0427,0.059,0.0643,0.0582,0.0605,0.0665,0.0657,0.0734,0.0733,0.0732,0.0732,0.0731,0,-0.0626,-0.0662,-0.0725,-0.0761,-0.0774,-0.0805,-0.0812,-0.0749,-0.0712,-0.058,-0.0549,-0.0382,-0.0246,0.0046,0.0281,0.0521,0.0559,0.0632,0.0659,0.0643,0.067,0.0663,0.0656,0.0683,0.0683,0.0682,0.0681,0,-0.0683,-0.07,-0.0752,-0.0825,-0.0862,-0.0895,-0.0902,-0.0892,-0.0802,-0.074,-0.0638,-0.0531,-0.0246,0.0009,0.0296,0.0439,0.0587,0.0622,0.065,0.0646,0.0597,0.0622,0.0617,0.0674,0.0675,0.0676,0.0676,0.0676,-0.0718,-0.0765,-0.0826,-0.0892,-0.0936,-0.0961,-0.0969,-0.0958,-0.0923,-0.0802,-0.0713,-0.0523,-0.0271,0.014,0.0334,0.0532,0.0555,0.0644,0.0647,0.0651,0.0596,0.0544,0.0602,0.0603,0.0603,0.0603,0.0603,0,-0.0763,-0.0814,-0.0885,-0.0952,-0.0992,-0.1004,-0.1008,-0.0991,-0.0955,-0.0823,-0.0712,-0.0435,-0.0145,0.011,0.0418,0.0589,0.0615,0.0613,0.0635,0.0639,0.0644,0.059,0.0595,0.0596,0.0596,0.0596,0,0,-0.0791,-0.086,-0.0895,-0.0975,-0.1018,-0.1036,-0.103,-0.1012,-0.0918,-0.0807,-0.0649,-0.0423,-0.0115,0.0104,0.0316,0.0469,0.0512,0.0479,0.0468,0.0473,0.0476,0.0643,0.0561,0,0,0,0,0]}],[{"header":{"parameterUnit":"m.s-1","parameterCategory":2,"la1":30.2991,"la2":30.254,"lo1":-89.0895,"lo2":-89.0444,"dy":0.0017,"dx":0.0017,"nx":28,"ny":28,"refTime":"2024-02-15T09:00:00:Z","depth":"4","parameterNumber":2,"parameterNumberName":"U-component_of_CURRENTS"},"data":[0,0,0,0,0,0,0,0,0,0,0,0,0,0,0,0,0,0,0,0,0,0,0,0,0,0,0,0,0,0,0,0,0,0,0,0,0,0,0,0,0,0,0,0,0,0,0,0,0,0,0,0,0,0,0,0,0,0,-0.1024,-0.1025,0,-0.1109,-0.111,-0.1111,-0.1138,-0.1138,-0.1137,-0.1137,-0.1174,-0.1176,-0.1177,0,0,0,0,0,0,0,0,0,0,0,0,0,-0.0934,-0.0935,-0.1023,-0.1025,-0.1026,-0.1109,-0.111,-0.1111,-0.1138,-0.1138,-0.1137,-0.1137,-0.1174,-0.1175,-0.1177,0,0,0,0,0,0,0,0,0,0,0,0,0,-0.0991,-0.0935,-0.1023,-0.105,-0.1053,-0.1109,-0.111,-0.1111,-0.1138,-0.1138,-0.1137,-0.1137,-0.1173,-0.1175,-0.1177,-0.1199,0,0,-0.1183,-0.1184,0,0,0,0,0,0,0,0,-0.0987,-0.0994,-0.1045,-0.1048,-0.1052,-0.1113,-0.1092,-0.1139,-0.1138,-0.1105,-0.1137,-0.1136,-0.115,-0.1154,-0.1171,-0.1201,-0.1203,-0.1183,-0.1185,-0.1185,-0.1186,0,0,0,0,0,0,0,-0.0983,-0.0991,-0.1057,-0.1046,-0.105,-0.1075,-0.1082,-0.1102,-0.1128,-0.1108,-0.111,-0.1121,-0.1152,-0.1169,-0.1172,-0.1203,-0.1183,-0.1185,-0.1186,-0.1187,-0.1273,-0.1274,0,0,0,0,0,0,-0.0972,-0.0987,-0.1054,-0.1059,-0.1019,-0.1077,-0.1084,-0.1093,-0.1129,-0.1134,-0.1121,-0.1122,-0.1166,-0.117,-0.1173,-0.1226,-0.1185,-0.1187,-0.1188,-0.1272,-0.1274,-0.1275,0,0,0,0,0,0,-0.097,-0.0977,-0.1051,-0.1026,-0.1037,-0.1078,-0.1088,-0.1095,-0.1128,-0.114,-0.1144,-0.1149,-0.1166,-0.117,-0.1209,-0.1226,-0.1188,-0.119,-0.1271,-0.1273,-0.1274,-0.1315,0,0,0,0,0,0,-0.0967,-0.0976,-0.099,-0.1025,-0.1038,-0.109,-0.1089,-0.1097,-0.1135,-0.1137,-0.1165,-0.1167,-0.1166,-0.1206,-0.1211,-0.1228,-0.1191,-0.127,-0.1272,-0.1274,-0.1312,-0.1317,-0.1322,0,0,0,0,0,-0.0964,-0.0981,-0.099,-0.0999,-0.1052,-0.1091,-0.11,-0.1128,-0.1137,-0.1155,-0.1179,-0.1167,-0.1222,-0.1209,-0.1214,-0.1232,-0.1268,-0.1271,-0.1274,-0.1309,-0.1316,-0.1322,0,0,0,0,0,0,-0.0949,-0.0986,-0.0997,-0.1025,-0.1059,-0.1096,-0.1123,-0.1141,-0.1176,-0.1183,-0.119,-0.1194,-0.1231,-0.1231,-0.1216,-0.1263,-0.124,-0.1244,-0.1266,-0.1272,-0.1277,-0.1277,-0.1193,0,0,0,0,0,-0.0952,-0.0978,-0.1012,-0.1038,-0.1056,-0.1094,-0.1119,-0.1137,-0.1169,-0.1185,-0.1204,-0.1224,-0.1244,-0.1258,-0.1273,-0.1308,-0.13,-0.132,-0.1325,-0.1329,-0.1333,-0.135,-0.1357,-0.1283,-0.1283,-0.1283,0,0,-0.0958,-0.0981,-0.0998,-0.1038,-0.1069,-0.1098,-0.1108,-0.115,-0.1178,-0.1183,-0.1231,-0.1246,-0.1258,-0.1292,-0.1307,-0.1295,-0.1345,-0.1333,-0.1336,-0.1338,-0.1353,-0.136,-0.1366,-0.1285,-0.1284,-0.1284,0,0,-0.0976,-0.1,-0.1026,-0.1051,-0.1096,-0.1119,-0.1133,-0.1179,-0.1204,-0.1254,-0.1258,-0.1288,-0.1327,-0.1335,-0.1344,-0.139,-0.1372,-0.1393,-0.1422,-0.1438,-0.1444,-0.1449,-0.1439,-0.1443,-0.1396,-0.1396,-0.1396,0,-0.0982,-0.101,-0.1041,-0.1066,-0.1089,-0.1127,-0.1155,-0.119,-0.1242,-0.1265,-0.1273,-0.1336,-0.1346,-0.1381,-0.1397,-0.1401,-0.14,-0.1396,-0.1444,-0.1449,-0.1454,-0.1442,-0.1446,-0.1398,-0.1398,-0.1398,-0.1397,0,-0.1007,-0.1035,-0.1053,-0.1094,-0.1127,-0.1157,-0.1199,-0.1235,-0.1272,-0.1304,-0.1359,-0.1385,-0.1419,-0.1426,-0.143,-0.1468,-0.1452,-0.1448,-0.1426,-0.1464,-0.1449,-0.1452,-0.1401,-0.14,-0.14,-0.1399,0,0,-0.1004,-0.1059,-0.1068,-0.1089,-0.114,-0.117,-0.1216,-0.1267,-0.1304,-0.1357,-0.1404,-0.1448,-0.1467,-0.1479,-0.1487,-0.1505,-0.1535,-0.1496,-0.1496,-0.1482,-0.1556,-0.1487,-0.1484,-0.1544,-0.1545,-0.1546,-0.1528,0,-0.1014,-0.1058,-0.1086,-0.1135,-0.116,-0.1199,-0.1241,-0.1293,-0.1342,-0.1396,-0.1434,-0.1484,-0.1486,-0.1512,-0.1532,-0.1539,-0.1548,-0.1538,-0.1526,-0.1525,-0.1456,-0.1487,-0.1549,-0.1531,-0.1531,-0.1532,-0.1532,0,-0.1023,-0.1052,-0.1099,-0.1153,-0.117,-0.1206,-0.1275,-0.132,-0.1392,-0.1429,-0.1482,-0.1517,-0.1562,-0.1558,-0.1587,-0.1584,-0.1575,-0.1573,-0.1572,-0.1496,-0.1462,-0.1489,-0.1538,-0.1537,-0.1537,-0.1537,-0.1536,0,-0.1005,-0.1059,-0.1099,-0.1116,-0.1185,-0.1218,-0.1261,-0.1333,-0.1367,-0.1457,-0.1485,-0.155,-0.1582,-0.1599,-0.1611,-0.1603,-0.1631,-0.1613,-0.1535,-0.1529,-0.1577,-0.1572,-0.1624,-0.1624,-0.1624,-0.1624,-0.1625,0,-0.0993,-0.1025,-0.1096,-0.1119,-0.1159,-0.1221,-0.1276,-0.1323,-0.139,-0.1427,-0.1506,-0.1535,-0.1597,-0.1623,-0.1623,-0.1593,-0.164,-0.1542,-0.1526,-0.1592,-0.1589,-0.1578,-0.1573,-0.1624,-0.1624,-0.1624,-0.1624,0,-0.096,-0.1013,-0.1055,-0.1131,-0.1153,-0.1188,-0.1257,-0.1284,-0.1367,-0.1414,-0.1442,-0.1525,-0.157,-0.1611,-0.1637,-0.1591,-0.1581,-0.1554,-0.1617,-0.1605,-0.1458,-0.1455,-0.1452,-0.1449,-0.1447,-0.1445,-0.1444,0,-0.0945,-0.0966,-0.1045,-0.1065,-0.1098,-0.1153,-0.1175,-0.1258,-0.1279,-0.1394,-0.1396,-0.1482,-0.1531,-0.1515,-0.1564,-0.156,-0.1544,-0.1509,-0.1487,-0.1458,-0.1444,-0.1444,-0.1444,-0.1441,-0.144,-0.1439,-0.1439,0,-0.0902,-0.0941,-0.0975,-0.1005,-0.1037,-0.1057,-0.1101,-0.1112,-0.1211,-0.1286,-0.1339,-0.1382,-0.1429,-0.1468,-0.1481,-0.1474,-0.1521,-0.1487,-0.149,-0.1469,-0.1445,-0.1432,-0.1435,-0.1432,-0.1433,-0.1433,-0.1434,0,-0.0864,-0.0868,-0.0913,-0.0925,-0.0954,-0.0952,-0.0997,-0.1031,-0.1072,-0.1207,-0.1222,-0.1333,-0.142,-0.1422,-0.1434,-0.1432,-0.1403,-0.1342,-0.1352,-0.1361,-0.1342,-0.1298,-0.1229,0,0,0,0,0,-0.0812,-0.0806,-0.082,-0.0835,-0.0853,-0.0867,-0.0929,-0.098,-0.1083,-0.1092,-0.1161,-0.1214,-0.1266,-0.1316,-0.1295,-0.137,-0.1391,-0.1335,-0.1322,-0.1392,-0.14,-0.1388,0,0,0,0,0,0,-0.078,-0.0795,-0.0792,-0.0741,-0.0731,-0.0741,-0.0785,-0.0863,-0.0882,-0.1004,-0.1046,-0.1127,-0.1196,-0.1267,-0.1267,-0.1279,-0.1243,-0.1398,-0.1394,-0.1387,-0.1395,-0.1402,-0.1392,0,0,0,0,0]},{"header":{"parameterUnit":"m.s-1","parameterCategory":2,"la1":30.2991,"la2":30.254,"lo1":-89.0895,"lo2":-89.0444,"dy":0.0017,"dx":0.0017,"nx":28,"ny":28,"refTime":"2024-02-15T09:00:00:Z","depth":"4","parameterNumber":3,"parameterNumberName":"V-component_of_CURRENTS"},"data":[0,0,0,0,0,0,0,0,0,0,0,0,0,0,0,0,0,0,0,0,0,0,0,0,0,0,0,0,0,0,0,0,0,0,0,0,0,0,0,0,0,0,0,0,0,0,0,0,0,0,0,0,0,0,0,0,0,0,-0.0205,-0.0204,0,-0.0169,-0.0169,-0.0169,-0.0157,-0.0157,-0.0157,-0.0157,-0.0092,-0.009,-0.0089,0,0,0,0,0,0,0,0,0,0,0,0,0,-0.0211,-0.0212,-0.0205,-0.0204,-0.0204,-0.0169,-0.0169,-0.0169,-0.0157,-0.0157,-0.0157,-0.0157,-0.0093,-0.0091,-0.0088,0,0,0,0,0,0,0,0,0,0,0,0,0,-0.0195,-0.0212,-0.0205,-0.0194,-0.0192,-0.017,-0.0169,-0.0168,-0.0156,-0.0157,-0.0157,-0.0157,-0.0094,-0.0091,-0.0088,-0.0066,0,0,-0.008,-0.0078,0,0,0,0,0,0,0,0,-0.0196,-0.0195,-0.0196,-0.0195,-0.0193,-0.0168,-0.0148,-0.0133,-0.0156,-0.017,-0.0157,-0.0157,-0.0115,-0.011,-0.0103,-0.0063,-0.0061,-0.0079,-0.0078,-0.0076,-0.0076,0,0,0,0,0,0,0,-0.0198,-0.0196,-0.0191,-0.0195,-0.0194,-0.0173,-0.0172,-0.0145,-0.0141,-0.0169,-0.0168,-0.0164,-0.0114,-0.0106,-0.0102,-0.006,-0.0079,-0.0077,-0.0075,-0.0074,-0.0019,-0.002,0,0,0,0,0,0,-0.0205,-0.0198,-0.0192,-0.019,-0.0195,-0.0173,-0.0172,-0.0176,-0.0142,-0.0137,-0.0164,-0.0164,-0.0111,-0.0105,-0.0099,-0.0101,-0.0077,-0.0074,-0.0072,-0.0019,-0.002,-0.002,0,0,0,0,0,0,-0.0205,-0.0205,-0.0193,-0.0192,-0.019,-0.0173,-0.0178,-0.0175,-0.0169,-0.0138,-0.0133,-0.0162,-0.0111,-0.0103,-0.0089,-0.0097,-0.0073,-0.007,-0.0019,-0.0019,-0.002,-0.0086,0,0,0,0,0,0,-0.0206,-0.0205,-0.0209,-0.0193,-0.019,-0.019,-0.0177,-0.0174,-0.0166,-0.0166,-0.0135,-0.0129,-0.011,-0.0094,-0.0087,-0.0093,-0.0068,-0.0019,-0.0019,-0.002,-0.0083,-0.0088,-0.0092,0,0,0,0,0,-0.0206,-0.0216,-0.021,-0.0209,-0.0196,-0.0191,-0.0187,-0.0176,-0.0166,-0.017,-0.0153,-0.013,-0.0091,-0.0092,-0.0084,-0.0089,-0.0019,-0.0019,-0.002,-0.0081,-0.0087,-0.0092,0,0,0,0,0,0,-0.0224,-0.0215,-0.0208,-0.0215,-0.0207,-0.0189,-0.0189,-0.0177,-0.0165,-0.0165,-0.0133,-0.0127,-0.0119,-0.0092,-0.0093,-0.0074,-0.005,-0.0049,-0.01,-0.0105,-0.011,-0.012,-0.0066,0,0,0,0,0,-0.0229,-0.0232,-0.022,-0.0225,-0.0223,-0.0204,-0.0198,-0.0193,-0.0179,-0.0174,-0.0151,-0.0128,-0.0113,-0.0101,-0.0082,-0.0067,-0.0028,-0.0064,-0.0069,-0.0073,-0.0075,-0.0012,-0.0011,-0.0021,-0.0021,-0.0021,0,0,-0.0236,-0.0232,-0.0233,-0.0229,-0.022,-0.0229,-0.0202,-0.0202,-0.021,-0.0168,-0.0169,-0.0144,-0.0113,-0.0107,-0.01,-0.0086,-0.0053,-0.0074,-0.0078,-0.0077,-0.0013,-0.0012,-0.0011,-0.0022,-0.0022,-0.0022,0,0,-0.0257,-0.025,-0.0262,-0.0259,-0.0252,-0.0247,-0.0248,-0.0233,-0.0228,-0.0224,-0.02,-0.018,-0.0151,-0.0134,-0.0121,-0.0134,-0.0083,-0.0125,-0.0154,-0.0093,-0.0092,-0.009,-0.0057,-0.0052,-0.0124,-0.0124,-0.0124,0,-0.0266,-0.0283,-0.0264,-0.0277,-0.0282,-0.0259,-0.0279,-0.0271,-0.0254,-0.0249,-0.0236,-0.0191,-0.0166,-0.0153,-0.0164,-0.0146,-0.0108,-0.0139,-0.0099,-0.0097,-0.0094,-0.006,-0.0053,-0.0127,-0.0127,-0.0127,-0.0126,0,-0.0294,-0.0312,-0.0319,-0.0332,-0.0334,-0.0348,-0.0338,-0.034,-0.0327,-0.0311,-0.0291,-0.0252,-0.0224,-0.0212,-0.0196,-0.0166,-0.0147,-0.0116,-0.0087,-0.0097,-0.0061,-0.0053,-0.0132,-0.0131,-0.013,-0.0129,0,0,-0.0311,-0.0336,-0.0341,-0.0361,-0.0367,-0.0375,-0.0394,-0.0398,-0.0406,-0.0373,-0.0366,-0.0335,-0.0297,-0.0279,-0.0243,-0.0192,-0.0149,-0.015,-0.0145,-0.0122,-0.0028,-0.0016,-0.0005,-0.0103,-0.0102,-0.01,-0.0018,0,-0.0342,-0.0385,-0.0389,-0.0435,-0.0457,-0.0452,-0.0471,-0.0469,-0.0455,-0.044,-0.0384,-0.0359,-0.0327,-0.0307,-0.0256,-0.0168,-0.0127,-0.0175,-0.0018,-0.0014,-0.0004,0.0005,-0.0096,-0.0012,-0.001,-0.0008,-0.0007,0,-0.0371,-0.0399,-0.0449,-0.0493,-0.0502,-0.0527,-0.0552,-0.0564,-0.0538,-0.0517,-0.0476,-0.0424,-0.0358,-0.0319,-0.0182,-0.021,-0.0133,-0.0063,-0.0058,-0.0015,0.0015,0.0006,0.0008,0.0007,0.0006,0.0005,0.0004,0,-0.0391,-0.0443,-0.0488,-0.05,-0.0541,-0.0568,-0.059,-0.0587,-0.0591,-0.0554,-0.0537,-0.0454,-0.0398,-0.0287,-0.0156,-0.0159,0.0007,0.0023,0.0101,0.0102,0.0094,0.0091,0.0118,0.0118,0.0118,0.0118,0.0117,0,-0.0422,-0.0461,-0.0504,-0.0528,-0.0585,-0.0598,-0.0642,-0.0648,-0.0638,-0.0628,-0.0571,-0.0527,-0.038,-0.0271,-0.016,-0.0004,0.0006,0.0097,0.0131,0.0061,0.0054,0.0099,0.0095,0.0121,0.012,0.0119,0.0119,0,-0.0436,-0.0465,-0.0519,-0.0574,-0.0596,-0.0632,-0.068,-0.0699,-0.0689,-0.0671,-0.0653,-0.0558,-0.041,-0.0274,-0.0081,-0.0005,0.014,0.0188,0.0085,0.0112,0.0189,0.0181,0.028,0.0282,0.0283,0.0284,0.0284,0,-0.0446,-0.0473,-0.0546,-0.0582,-0.0613,-0.0667,-0.0702,-0.0718,-0.0721,-0.0679,-0.0655,-0.0532,-0.045,-0.0182,-0.004,0.0162,0.0189,0.0242,0.0226,0.0186,0.0209,0.02,0.0191,0.0286,0.0287,0.0287,0.0287,0,-0.0461,-0.0486,-0.0528,-0.0602,-0.0653,-0.0701,-0.0742,-0.0743,-0.074,-0.0734,-0.0632,-0.0508,-0.0346,-0.0158,-0.0005,0.014,0.0199,0.0254,0.0253,0.0238,0.0194,0.0214,0.0204,0.0291,0.029,0.029,0.029,0,-0.0466,-0.0496,-0.0554,-0.0614,-0.0675,-0.0711,-0.0738,-0.0727,-0.0724,-0.0671,-0.0629,-0.0475,-0.0382,-0.0167,-0.0019,0.0119,0.0151,0.018,0.0183,0.018,0.0126,0.0054,0.0142,0,0,0,0,0,-0.047,-0.0505,-0.0564,-0.0628,-0.0683,-0.072,-0.0751,-0.0762,-0.0751,-0.0677,-0.0653,-0.0501,-0.0277,-0.0178,-0.0033,-0.0003,0.0166,0.0168,0.0198,0.0312,0.0308,0.0263,0,0,0,0,0,0,-0.0478,-0.0531,-0.056,-0.0619,-0.0662,-0.0719,-0.0738,-0.0735,-0.0685,-0.0657,-0.0529,-0.0477,-0.025,-0.0355,-0.0033,0.0008,0.0044,0.0271,0.0274,0.0315,0.0311,0.0307,0.0259,0,0,0,0,0]}]]